GW6268 Weather Reports


time (UTC)temp
F
wind
direction
speed
knots
gust
knots
rain 1hr
in
rain 24hr
in
rain mn
in
humidity
%
barometer
mb
20260508035802 43 111 5.2 6.1 0.00 0.00 0.00 95 1018.2
20260508035306 43 116 5.2 6.1 0.00 0.00 0.00 95 1018.2
20260508034803 44 113 6.1 6.1 0.00 0.00 0.00 95 1018.2
20260508034302 44 109 6.1 7.0 0.00 0.00 0.00 95 1018.2
20260508032803 44 117 6.1 7.8 0.00 0.00 0.00 95 1018.2
20260508032306 44 119 7.0 7.0 0.00 0.00 0.00 95 1018.2
20260508031802 44 122 7.0 7.8 0.00 0.00 0.00 95 1018.2
20260508031303 44 121 7.0 7.8 0.00 0.00 0.00 95 1018.2
20260508030802 44 120 7.0 7.0 0.00 0.00 0.00 95 1018.2
20260508030302 44 116 6.1 7.8 0.00 0.00 0.00 94 1018.1
20260508025803 44 116 6.1 7.0 0.00 0.00 0.00 94 1018.2
20260508025306 44 117 6.1 7.0 0.00 0.00 0.00 94 1018.2
20260508024803 44 118 6.1 7.0 0.00 0.00 0.00 95 1018.1
20260508023803 44 122 5.2 6.1 0.00 0.00 0.00 95 1018.3
20260508022802 44 121 5.2 6.1 0.00 0.00 0.00 95 1018.2
20260508022306 44 129 6.1 7.0 0.00 0.00 0.00 95 1018.3
20260508021802 44 120 6.1 7.0 0.00 0.00 0.00 95 1018.3
20260508021303 44 130 5.2 6.1 0.00 0.00 0.00 95 1018.3
20260508020802 44 122 5.2 5.2 0.00 0.00 0.00 95 1018.3
20260508020303 43 127 4.3 5.2 0.00 0.00 0.00 94 1018.3
20260508015803 43 118 4.3 5.2 0.00 0.00 0.00 94 1018.2
20260508015305 44 121 4.3 5.2 0.00 0.00 0.00 94 1018.2
20260508014802 44 115 5.2 6.1 0.00 0.00 0.00 94 1018.2
20260508014302 44 110 5.2 6.1 0.00 0.00 0.00 93 1018.1
20260508013802 44 125 5.2 5.2 0.00 0.00 0.00 93 1018.2
20260508013303 44 119 5.2 6.1 0.00 0.00 0.00 93 1018.2
20260508011802 45 117 5.2 6.1 0.00 0.00 0.00 92 1018.3
20260508011303 45 112 6.1 7.0 0.00 0.00 0.00 92 1018.3
20260508010804 45 114 6.1 6.1 0.00 0.00 0.00 93 1018.4
20260508010302 45 112 5.2 6.1 0.00 0.00 0.00 93 1018.3
20260508004804 45 111 5.2 6.1 0.00 0.00 0.00 93 1018.4
20260508004302 45 109 5.2 6.1 0.00 0.00 0.00 93 1018.4
20260508003803 45 113 5.2 5.2 0.00 0.00 0.00 92 1018.4
20260508003303 45 117 5.2 5.2 0.00 0.00 0.00 92 1018.5
20260508002306 45 123 5.2 5.2 0.00 0.00 0.00 92 1018.6
20260508001802 45 122 5.2 5.2 0.00 0.00 0.00 92 1018.6
20260508001303 45 121 5.2 5.2 0.00 0.00 0.00 92 1018.5
20260508000802 45 123 5.2 5.2 0.00 0.00 0.00 92 1018.6
20260508000305 45 120 5.2 5.2 0.00 0.00 0.00 92 1018.6
20260507234802 46 130 5.2 6.1 0.00 0.00 0.00 92 1018.6
20260507233803 46 128 5.2 6.1 0.00 0.00 0.00 91 1018.5
20260507233302 46 126 5.2 6.1 0.00 0.00 0.00 91 1018.6
20260507232804 46 127 4.3 5.2 0.00 0.00 0.00 91 1018.5
20260507232306 46 119 4.3 5.2 0.00 0.00 0.00 90 1018.5
20260507231802 46 115 4.3 5.2 0.00 0.00 0.00 90 1018.6
20260507231303 46 113 5.2 5.2 0.00 0.00 0.00 90 1018.6
20260507230803 46 118 5.2 7.0 0.00 0.00 0.00 90 1018.7
20260507230302 46 116 5.2 7.0 0.00 0.00 0.00 89 1018.6
20260507225803 47 125 5.2 7.0 0.00 0.00 0.00 89 1018.7
20260507225306 47 134 4.3 5.2 0.00 0.00 0.00 89 1018.8
20260507224803 47 123 2.6 5.2 0.00 0.00 0.00 89 1018.8
20260507224303 47 115 4.3 5.2 0.00 0.00 0.00 88 1018.7
20260507223803 47 118 5.2 7.0 0.00 0.00 0.00 88 1018.8
20260507222802 48 126 5.2 7.0 0.00 0.00 0.00 87 1018.7
20260507221803 48 136 6.1 8.7 0.00 0.00 0.00 87 1018.7
20260507221304 48 122 5.2 7.8 0.00 0.00 0.00 86 1018.6
20260507220802 48 114 5.2 7.0 0.00 0.00 0.00 86 1018.6
20260507215803 49 118 5.2 7.8 0.00 0.00 0.00 86 1018.6
20260507215306 49 115 6.1 7.0 0.00 0.00 0.00 85 1018.6
20260507214303 49 127 4.3 6.1 0.00 0.00 0.00 85 1018.7
20260507213803 49 116 5.2 8.7 0.00 0.00 0.00 84 1018.7
20260507213303 49 127 6.1 8.7 0.00 0.00 0.00 84 1018.7
20260507212803 49 129 6.1 10.4 0.00 0.00 0.00 84 1018.7
20260507212306 49 118 6.1 7.8 0.00 0.00 0.00 84 1018.6
20260507211802 49 116 6.1 10.4 0.00 0.00 0.00 83 1018.6
20260507211302 50 114 7.0 8.7 0.00 0.00 0.00 83 1018.6
20260507210803 50 118 6.1 10.4 0.00 0.00 0.00 83 1018.5
20260507210303 50 122 6.1 10.4 0.00 0.00 0.00 82 1018.5
20260507205803 50 123 5.2 7.8 0.00 0.00 0.00 82 1018.4
20260507205306 50 118 7.0 10.4 0.00 0.00 0.00 83 1018.4
20260507204803 50 119 4.3 6.1 0.00 0.00 0.00 82 1018.4
20260507204303 50 109 5.2 8.7 0.00 0.00 0.00 82 1018.3
20260507203802 50 102 5.2 8.7 0.00 0.00 0.00 82 1018.2
20260507202803 51 100 7.8 10.4 0.00 0.00 0.00 81 1018.0
20260507202306 51 101 9.6 11.3 0.00 0.00 0.00 81 1017.9
20260507201803 51 103 8.7 11.3 0.00 0.00 0.00 81 1018.0
20260507201302 51 99 6.1 7.8 0.00 0.00 0.00 81 1018.1
20260507200803 51 101 6.1 7.8 0.00 0.00 0.00 80 1018.0
20260507200304 51 107 7.0 8.7 0.00 0.00 0.00 80 1018.1
20260507195803 51 108 6.1 8.7 0.00 0.00 0.00 80 1018.1
20260507195305 51 104 6.1 8.7 0.00 0.00 0.00 80 1018.1
20260507194303 51 109 5.2 7.0 0.00 0.00 0.00 80 1018.1
20260507193804 52 104 5.2 10.4 0.00 0.00 0.00 79 1018.0
20260507193303 52 97 7.8 10.4 0.00 0.00 0.00 79 1017.9
20260507192802 52 113 8.7 11.3 0.00 0.00 0.00 79 1017.8
20260507192306 52 109 7.0 10.4 0.00 0.00 0.00 79 1017.7
20260507191804 52 105 7.8 12.2 0.00 0.00 0.00 79 1017.7
20260507190804 52 104 7.8 12.2 0.00 0.00 0.00 78 1017.7
20260507190303 52 98 8.7 11.3 0.00 0.00 0.00 78 1017.7
20260507185803 52 102 7.8 12.2 0.00 0.00 0.00 78 1017.8
20260507185305 52 109 8.7 13.0 0.00 0.00 0.00 77 1017.8
20260507184302 52 106 8.7 13.9 0.00 0.00 0.00 77 1017.8
20260507183803 53 107 10.4 13.0 0.00 0.00 0.00 77 1017.8
20260507183303 53 110 9.6 12.2 0.00 0.00 0.00 77 1017.7
20260507182803 53 112 11.3 13.9 0.00 0.00 0.00 76 1017.7
20260507182306 53 101 9.6 13.0 0.00 0.00 0.00 76 1017.6
20260507181803 53 108 9.6 13.0 0.00 0.00 0.00 75 1017.5
20260507181303 53 98 8.7 13.0 0.00 0.00 0.00 75 1017.4
20260507180303 54 105 10.4 13.9 0.00 0.00 0.00 74 1017.4
20260507175306 54 109 10.4 13.0 0.00 0.00 0.00 73 1017.5
20260507174802 54 113 8.7 12.2 0.00 0.00 0.00 74 1017.5
20260507174302 54 108 7.8 12.2 0.00 0.00 0.00 73 1017.3
20260507173803 55 118 7.8 12.2 0.00 0.00 0.00 73 1017.3
20260507173302 55 101 7.8 11.3 0.00 0.00 0.00 72 1017.2
20260507172805 55 103 7.8 11.3 0.00 0.00 0.00 72 1017.3
20260507172307 55 103 8.7 11.3 0.00 0.00 0.00 71 1017.4
20260507171802 55 101 9.6 12.2 0.00 0.00 0.00 71 1017.3
20260507171302 55 110 8.7 11.3 0.00 0.00 0.00 70 1017.3
20260507170802 55 99 7.8 10.4 0.00 0.00 0.00 70 1017.4
20260507170303 55 105 7.0 11.3 0.00 0.00 0.00 71 1017.5
20260507165802 55 90 5.2 10.4 0.00 0.00 0.00 71 1017.5
20260507165306 55 91 7.8 10.4 0.00 0.00 0.00 71 1017.4
20260507164803 55 78 6.1 11.3 0.00 0.00 0.00 71 1017.4
20260507164303 55 90 8.7 12.2 0.00 0.00 0.00 71 1017.3
20260507163803 55 87 5.2 7.8 0.00 0.00 0.00 72 1017.3
20260507163302 55 97 6.1 10.4 0.00 0.00 0.00 71 1017.3
20260507162804 55 102 7.0 8.7 0.00 0.00 0.00 71 1017.3
20260507162306 55 109 7.0 8.7 0.00 0.00 0.00 72 1017.4
20260507161803 55 88 4.3 7.0 0.00 0.00 0.00 72 1017.4
20260507161303 55 85 4.3 7.0 0.00 0.00 0.00 72 1017.5
20260507160803 55 25 3.5 5.2 0.00 0.00 0.00 73 1017.6
20260507160306 55 21 1.7 4.3 0.00 0.00 0.00 74 1017.5
20260507155803 55 52 1.7 5.2 0.00 0.00 0.00 73 1017.5
20260507155306 55 24 1.7 4.3 0.00 0.00 0.00 74 1017.6
20260507154803 55 23 2.6 7.8 0.00 0.00 0.00 74 1017.7
20260507154303 55 39 3.5 7.0 0.00 0.00 0.00 73 1017.4
20260507153803 55 39 2.6 6.1 0.00 0.00 0.00 73 1017.4
20260507153303 55 68 4.3 7.0 0.00 0.00 0.00 73 1017.4
20260507152803 56 67 2.6 7.0 0.00 0.00 0.00 73 1017.4
20260507152306 55 77 3.5 7.0 0.00 0.00 0.00 73 1017.6
20260507151804 56 32 4.3 7.8 0.00 0.00 0.00 72 1017.7
20260507151303 56 78 5.2 8.7 0.00 0.00 0.00 74 1017.7
20260507145803 56 23 5.2 7.8 0.00 0.00 0.00 74 1017.5
20260507144803 55 84 4.3 10.4 0.00 0.00 0.00 75 1017.5
20260507144303 55 28 6.1 8.7 0.00 0.00 0.00 75 1017.6
20260507143802 55 55 5.2 10.4 0.00 0.00 0.00 76 1017.6
20260507143303 55 61 6.1 10.4 0.00 0.00 0.00 76 1017.5
20260507142803 55 49 7.0 11.3 0.00 0.00 0.00 78 1017.8
20260507142306 54 41 6.1 10.4 0.00 0.00 0.00 77 1017.9
20260507141804 54 44 6.1 10.4 0.00 0.00 0.00 76 1018.0
20260507140304 54 37 7.8 11.3 0.00 0.00 0.00 77 1017.9
20260507135803 54 50 5.2 10.4 0.00 0.00 0.00 78 1018.0
20260507135306 54 48 6.1 10.4 0.00 0.00 0.00 79 1017.9
20260507134803 53 29 6.1 10.4 0.00 0.00 0.00 78 1018.1
20260507134303 53 37 5.2 8.7 0.00 0.00 0.00 78 1018.0
20260507133803 53 36 4.3 8.7 0.00 0.00 0.00 79 1018.3
20260507133304 53 24 4.3 7.8 0.00 0.00 0.00 79 1018.2
20260507132803 53 30 5.2 10.4 0.00 0.00 0.00 79 1018.2
20260507132307 53 37 5.2 10.4 0.00 0.00 0.00 78 1018.2
20260507131803 53 29 4.3 10.4 0.00 0.00 0.00 79 1018.3
20260507131305 54 33 5.2 8.7 0.00 0.00 0.00 78 1018.3
20260507130803 54 49 5.2 10.4 0.00 0.00 0.00 78 1018.2
20260507130303 54 27 3.5 10.4 0.00 0.00 0.00 78 1018.3
20260507125803 54 58 4.3 7.8 0.00 0.00 0.00 77 1018.3
20260507124303 54 46 5.2 7.8 0.00 0.00 0.00 76 1018.1
20260507123303 54 34 4.3 8.7 0.00 0.00 0.00 74 1018.2
20260507122804 54 21 5.2 10.4 0.00 0.00 0.00 74 1018.3
20260507122306 54 44 6.1 12.2 0.00 0.00 0.00 76 1018.2
20260507121803 54 40 5.2 10.4 0.00 0.00 0.00 76 1018.2
20260507121303 53 27 6.1 10.4 0.00 0.00 0.00 75 1018.2
20260507120803 53 42 4.3 10.4 0.00 0.00 0.00 76 1018.4
20260507120302 53 47 6.1 10.4 0.00 0.00 0.00 75 1018.2
20260507115804 53 45 4.3 10.4 0.00 0.00 0.00 78 1018.3
20260507115306 51 54 4.3 10.4 0.00 0.00 0.00 80 1018.2
20260507114803 51 39 2.6 7.8 0.00 0.00 0.00 79 1018.4
20260507114303 51 18 4.3 8.7 0.00 0.00 0.00 79 1018.4
20260507113803 51 6 5.2 10.4 0.00 0.00 0.00 78 1018.4
20260507113303 51 358 4.3 7.8 0.00 0.00 0.00 78 1018.3
20260507112803 51 338 1.7 6.1 0.00 0.00 0.00 79 1018.3
20260507112307 51 355 1.7 6.1 0.00 0.00 0.00 79 1018.2
20260507111803 51 37 2.6 6.1 0.00 0.00 0.00 79 1018.3
20260507110803 51 38 4.3 7.8 0.00 0.00 0.00 78 1018.5
20260507110303 51 41 3.5 7.8 0.00 0.00 0.00 77 1018.4
20260507105803 52 37 5.2 10.4 0.00 0.00 0.00 77 1018.3
20260507105306 52 40 6.1 10.4 0.00 0.00 0.00 76 1018.4
20260507104804 52 38 2.6 10.4 0.00 0.00 0.00 77 1018.5
20260507104303 52 69 4.3 8.7 0.00 0.00 0.00 76 1018.4
20260507103306 52 349 5.2 8.7 0.00 0.00 0.00 77 1018.7
20260507102803 52 343 4.3 10.4 0.00 0.00 0.00 76 1018.7
20260507101303 52 37 3.5 6.1 0.00 0.00 0.00 72 1018.5
20260507100803 52 347 1.7 4.3 0.00 0.00 0.00 73 1018.6
20260507100303 52 107 3.5 5.2 0.00 0.00 0.00 71 1018.6
20260507095803 53 67 0.9 4.3 0.00 0.00 0.00 71 1018.5
20260507095305 52 91 3.5 5.2 0.00 0.00 0.00 70 1018.6
20260507094803 53 61 2.6 4.3 0.00 0.00 0.00 71 1018.5
20260507094303 52 97 1.7 4.3 0.00 0.00 0.00 73 1018.5
20260507093804 52 89 2.6 7.0 0.00 0.00 0.00 72 1018.5
20260507093303 52 158 4.3 7.0 0.00 0.00 0.00 71 1018.5
20260507092803 52 106 3.5 5.2 0.00 0.00 0.00 71 1018.5
20260507092306 52 172 2.6 5.2 0.00 0.00 0.00 73 1018.5
20260507091803 52 117 4.3 7.8 0.00 0.00 0.00 72 1018.5
20260507090804 52 134 2.6 6.1 0.00 0.00 0.00 74 1018.6
20260507090303 52 73 5.2 8.7 0.00 0.00 0.00 74 1018.5
20260507084803 51 84 6.1 8.7 0.00 0.00 0.00 73 1018.5
20260507083805 51 89 5.2 8.7 0.00 0.00 0.00 77 1018.4
20260507083303 50 135 2.6 6.1 0.00 0.00 0.00 78 1018.6
20260507081803 49 105 5.2 7.0 0.00 0.00 0.00 78 1018.4
20260507081303 49 96 2.6 5.2 0.00 0.00 0.00 79 1018.5
20260507080803 49 102 2.6 4.3 0.00 0.00 0.00 79 1018.5
20260507080303 49 86 2.6 4.3 0.00 0.00 0.00 78 1018.5
20260507075803 49 98 2.6 5.2 0.00 0.00 0.00 79 1018.5
20260507075306 49 97 2.6 2.6 0.00 0.00 0.00 79 1018.3
20260507074804 49 97 3.5 5.2 0.00 0.00 0.00 78 1018.3
20260507074303 49 96 5.2 7.0 0.00 0.00 0.00 78 1018.3
20260507073803 49 106 4.3 7.0 0.00 0.00 0.00 78 1018.2
20260507073303 49 107 5.2 8.7 0.00 0.00 0.00 78 1018.2
20260507072803 49 114 5.2 7.8 0.00 0.00 0.00 78 1018.2
20260507072306 49 122 5.2 7.0 0.00 0.00 0.00 78 1018.2
20260507071803 49 119 6.1 7.8 0.00 0.00 0.00 78 1018.0
20260507071303 49 138 6.1 8.7 0.00 0.00 0.00 78 1018.0
20260507070804 48 97 7.8 10.4 0.00 0.00 0.00 80 1018.1
20260507070303 48 117 6.1 10.4 0.00 0.00 0.00 81 1018.2
20260507065803 48 112 6.1 8.7 0.00 0.00 0.00 82 1018.1
20260507064803 48 114 6.1 7.0 0.00 0.00 0.00 83 1018.0
20260507064303 47 111 5.2 7.0 0.00 0.00 0.00 83 1018.0
20260507063803 47 112 5.2 6.1 0.00 0.00 0.00 84 1017.9
20260507063304 47 115 5.2 6.1 0.00 0.00 0.00 84 1018.0
20260507062803 47 136 4.3 5.2 0.00 0.00 0.00 84 1017.9
20260507062306 47 114 3.5 4.3 0.00 0.00 0.00 85 1018.0
20260507061804 47 142 2.6 2.6 0.00 0.00 0.00 85 1018.0
20260507061303 47 157 2.6 2.6 0.00 0.00 0.00 86 1018.0
20260507060803 47 152 2.6 2.6 0.00 0.00 0.00 86 1018.0
20260507055803 46 138 1.7 2.6 0.00 0.00 0.00 86 1017.9
20260507055306 46 142 1.7 2.6 0.00 0.00 0.00 86 1017.8
20260507054805 46 143 1.7 2.6 0.00 0.00 0.00 87 1017.7
20260507054303 46 142 1.7 1.7 0.00 0.00 0.00 86 1017.7
20260507052805 46 133 1.7 1.7 0.00 0.03 0.00 86 1017.6
20260507051805 46 136 1.7 2.6 0.00 0.04 0.00 86 1017.6
20260507051303 46 140 1.7 2.6 0.00 0.04 0.00 86 1017.6
20260507050803 46 136 1.7 2.6 0.00 0.04 0.00 87 1017.6
20260507050304 46 128 1.7 2.6 0.00 0.04 0.00 87 1017.6
20260507045803 46 127 2.6 2.6 0.00 0.04 0.00 87 1017.6
20260507045306 45 125 1.7 2.6 0.00 0.04 0.00 87 1017.6
20260507044803 45 124 1.7 2.6 0.00 0.04 0.00 86 1017.5
20260507044304 45 122 1.7 2.6 0.00 0.04 0.00 86 1017.5
20260507043303 45 135 1.7 2.6 0.00 0.04 0.00 87 1017.5
20260507042306 45 136 0.0 0.0 0.00 0.04 0.00 87 1017.4
20260507041803 45 124 0.0 0.0 0.00 0.04 0.00 88 1017.3
20260507041303 46 122 0.0 0.0 0.00 0.04 0.00 87 1017.2
20260507040304 46 123 0.0 0.0 0.00 0.04 0.00 87 1017.2